sat.trackr.live / text

‹ back to catalog

STARLINK-30473

NORAD 57893 · 2023-146C

PAYLOAD ACTIVE UNKNOWN

§ Identity

Operator
Country
US
Launch date
2023-09-20
Launch site
AFETR
Launch vehicle
Mass (kg)
RCS (m²)

Purposes: comms

External: N2YO · Heavens-Above · Gunter

§ Orbital elements

Epoch: 2026-09-20T19:08:36.653280Z

Period
94.27 min
Inclination
43.0027°
Eccentricity
0.0000995
Mean motion
15.27574740 rev/d
Perigee alt
482.4 km
Apogee alt
483.7 km
Semi-major
6,861.2 km
B*
1.4295e-5
RAAN
292.4355°
Arg perigee
283.0867°
Mean anomaly
76.9873°
Rev number
16,689

§ Raw data

STARLINK-304731 57893U 23146C   26263.79764645  .00000131  00000+0  14295-4 0  99942 57893  43.0027 292.4355 0000995 283.0867  76.9873 15.27574740166899

JSON: /api/v1/satellites/57893 · /tle

For live sub-satellite position, see the globe view (requires WebGL).

§ Visibility from observer

Set your observer location to see the next 7 days of passes ≥ 10°. The values pass through the URL so the page stays shareable.

No JS? Fill the form by hand. The geolocation button needs JavaScript.